Time,TemperatureF,DewpointF,PressureIn,WindDirection,WindDirectionDegrees,WindSpeedMPH,WindSpeedGustMPH,Humidity,HourlyPrecipIn,Conditions,Clouds,dailyrainin,SolarRadiationWatts/m^2,SoftwareType,DateUTC
2013-01-12 00:00:00,49.9,45.6,29.66,SSW,212,11.0,13.0,85,0.00,,,0.09,0,Wunderground v.1.15,2013-01-12 06:00:00,
2013-01-12 00:06:00,49.7,45.4,29.66,South,178,11.0,21.0,85,0.00,,,0.00,0,Wunderground v.1.15,2013-01-12 06:06:00,
2013-01-12 00:11:00,49.9,45.6,29.66,SSW,202,11.0,11.0,85,0.00,,,0.00,0,Wunderground v.1.15,2013-01-12 06:11:00,
2013-01-12 00:17:00,49.8,45.5,29.66,SSW,205,10.0,11.0,85,0.00,,,0.00,0,Wunderground v.1.15,2013-01-12 06:17:00,
2013-01-12 00:25:00,49.7,45.4,29.66,SSW,199,8.0,9.0,85,0.00,,,0.00,0,Wunderground v.1.15,2013-01-12 06:25:00,
2013-01-12 00:31:00,49.7,45.7,29.66,SSW,206,9.0,18.0,86,0.00,,,0.00,0,Wunderground v.1.15,2013-01-12 06:31:00,
2013-01-12 00:37:00,49.6,45.3,29.66,SSW,200,9.0,18.0,85,0.00,,,0.00,0,Wunderground v.1.15,2013-01-12 06:37:00,
2013-01-12 00:42:00,49.6,45.3,29.66,SSW,211,9.0,10.0,85,0.00,,,0.00,0,Wunderground v.1.15,2013-01-12 06:42:00,
2013-01-12 00:47:00,49.7,45.4,29.67,South,187,10.0,12.0,85,0.00,,,0.00,0,Wunderground v.1.15,2013-01-12 06:47:00,
2013-01-12 00:54:00,49.6,45.3,29.67,SSW,195,10.0,13.0,85,0.00,,,0.00,0,Wunderground v.1.15,2013-01-12 06:54:00,
2013-01-12 01:00:00,49.7,45.4,29.67,SSW,202,10.0,10.0,85,0.00,,,0.00,0,Wunderground v.1.15,2013-01-12 07:00:00,
2013-01-12 01:05:00,49.4,45.1,29.67,SSW,213,10.0,12.0,85,0.00,,,0.00,0,Wunderground v.1.15,2013-01-12 07:05:00,
2013-01-12 01:11:00,49.4,45.1,29.67,SW,216,10.0,15.0,85,0.00,,,0.00,0,Wunderground v.1.15,2013-01-12 07:11:00,
2013-01-12 01:16:00,49.4,45.1,29.67,South,190,12.0,16.0,85,0.00,,,0.00,0,Wunderground v.1.15,2013-01-12 07:16:00,
2013-01-12 01:22:00,49.2,44.9,29.67,South,186,11.0,12.0,85,0.00,,,0.00,0,Wunderground v.1.15,2013-01-12 07:22:00,
2013-01-12 01:30:00,49.0,45.0,29.67,SSW,202,9.0,12.0,86,0.00,,,0.00,0,Wunderground v.1.15,2013-01-12 07:30:00,
2013-01-12 01:35:00,49.0,45.0,29.68,South,186,8.0,9.0,86,0.00,,,0.00,0,Wunderground v.1.15,2013-01-12 07:35:00,
2013-01-12 01:40:00,49.0,45.0,29.68,SSW,206,8.0,16.0,86,0.00,,,0.00,0,Wunderground v.1.15,2013-01-12 07:40:00,
2013-01-12 01:45:00,49.0,45.0,29.68,SSW,192,9.0,11.0,86,0.00,,,0.00,0,Wunderground v.1.15,2013-01-12 07:45:00,
2013-01-12 01:52:00,49.1,44.8,29.68,SSW,203,10.0,19.0,85,0.00,,,0.00,0,Wunderground v.1.15,2013-01-12 07:52:00,
2013-01-12 01:59:00,49.6,45.3,29.68,SSW,209,10.0,19.0,85,0.00,,,0.00,0,Wunderground v.1.15,2013-01-12 07:59:00,
2013-01-12 02:05:00,49.7,45.1,29.68,SSW,205,11.0,18.0,84,0.00,,,0.00,0,Wunderground v.1.15,2013-01-12 08:05:00,
2013-01-12 02:12:00,49.6,45.0,29.68,SSW,196,10.0,13.0,84,0.00,,,0.00,0,Wunderground v.1.15,2013-01-12 08:12:00,
2013-01-12 02:19:00,49.3,44.7,29.69,SW,222,9.0,13.0,84,0.00,,,0.00,0,Wunderground v.1.15,2013-01-12 08:19:00,
2013-01-12 02:25:00,49.4,45.1,29.69,South,183,9.0,9.0,85,0.00,,,0.00,0,Wunderground v.1.15,2013-01-12 08:25:00,
2013-01-12 02:30:00,49.2,44.9,29.68,SSW,192,9.0,9.0,85,0.00,,,0.00,0,Wunderground v.1.15,2013-01-12 08:30:00,
2013-01-12 02:36:00,49.0,44.7,29.68,SSW,205,8.0,10.0,85,0.00,,,0.00,0,Wunderground v.1.15,2013-01-12 08:36:00,
2013-01-12 02:41:00,49.0,44.7,29.68,SSW,206,8.0,9.0,85,0.00,,,0.00,0,Wunderground v.1.15,2013-01-12 08:41:00,
2013-01-12 02:46:00,49.2,44.9,29.69,SSW,213,9.0,13.0,85,0.00,,,0.00,0,Wunderground v.1.15,2013-01-12 08:46:00,
2013-01-12 02:52:00,49.3,45.0,29.69,SSW,210,10.0,10.0,85,0.00,,,0.00,0,Wunderground v.1.15,2013-01-12 08:52:00,
2013-01-12 02:57:00,49.4,45.1,29.69,SSW,200,11.0,14.0,85,0.00,,,0.00,0,Wunderground v.1.15,2013-01-12 08:57:00,
2013-01-12 03:02:00,49.4,44.8,29.68,SSW,208,11.0,12.0,84,0.00,,,0.00,0,Wunderground v.1.15,2013-01-12 09:02:00,
2013-01-12 03:07:00,49.3,44.7,29.68,SSW,200,10.0,16.0,84,0.00,,,0.00,0,Wunderground v.1.15,2013-01-12 09:07:00,
2013-01-12 03:12:00,49.3,45.0,29.68,SSW,207,11.0,16.0,85,0.00,,,0.00,0,Wunderground v.1.15,2013-01-12 09:12:00,
2013-01-12 03:19:00,49.5,44.9,29.68,SW,215,10.0,16.0,84,0.00,,,0.00,0,Wunderground v.1.15,2013-01-12 09:19:00,
2013-01-12 03:25:00,49.5,44.9,29.68,SSW,207,9.0,13.0,84,0.00,,,0.00,0,Wunderground v.1.15,2013-01-12 09:25:00,
2013-01-12 03:31:00,49.7,45.1,29.68,SSW,203,9.0,10.0,84,0.00,,,0.00,0,Wunderground v.1.15,2013-01-12 09:31:00,
2013-01-12 03:36:00,49.5,44.9,29.68,SSW,192,9.0,10.0,84,0.00,,,0.00,0,Wunderground v.1.15,2013-01-12 09:36:00,
2013-01-12 03:42:00,49.6,45.0,29.68,SSW,211,8.0,10.0,84,0.00,,,0.00,0,Wunderground v.1.15,2013-01-12 09:42:00,
2013-01-12 03:49:00,49.6,45.0,29.68,SSW,203,9.0,15.0,84,0.00,,,0.00,0,Wunderground v.1.15,2013-01-12 09:49:00,
2013-01-12 03:55:00,49.7,45.1,29.68,South,189,11.0,11.0,84,0.00,,,0.00,0,Wunderground v.1.15,2013-01-12 09:55:00,
2013-01-12 04:00:00,49.7,44.7,29.68,SW,225,11.0,15.0,83,0.00,,,0.00,0,Wunderground v.1.15,2013-01-12 10:00:00,
2013-01-12 04:05:00,49.7,45.1,29.68,SW,218,11.0,19.0,84,0.00,,,0.00,0,Wunderground v.1.15,2013-01-12 10:05:00,
2013-01-12 04:11:00,49.6,44.6,29.68,South,190,10.0,10.0,83,0.00,,,0.00,0,Wunderground v.1.15,2013-01-12 10:11:00,
2013-01-12 04:17:00,49.7,44.7,29.69,SSW,207,10.0,13.0,83,0.00,,,0.00,0,Wunderground v.1.15,2013-01-12 10:17:00,
2013-01-12 04:22:00,49.4,44.5,29.69,SSW,208,9.0,9.0,83,0.00,,,0.00,0,Wunderground v.1.15,2013-01-12 10:22:00,
2013-01-12 04:27:00,49.6,44.6,29.69,SSW,210,9.0,12.0,83,0.00,,,0.00,0,Wunderground v.1.15,2013-01-12 10:27:00,
2013-01-12 04:34:00,49.6,44.6,29.68,SW,219,9.0,17.0,83,0.00,,,0.00,0,Wunderground v.1.15,2013-01-12 10:34:00,
2013-01-12 04:39:00,49.8,44.8,29.68,SSW,213,10.0,17.0,83,0.00,,,0.00,0,Wunderground v.1.15,2013-01-12 10:39:00,
2013-01-12 04:45:00,49.6,44.6,29.68,SSW,210,10.0,10.0,83,0.00,,,0.00,0,Wunderground v.1.15,2013-01-12 10:45:00,
2013-01-12 04:50:00,49.9,44.9,29.69,SSW,204,9.0,10.0,83,0.00,,,0.00,0,Wunderground v.1.15,2013-01-12 10:50:00,
2013-01-12 04:56:00,49.8,44.8,29.69,SSW,212,9.0,12.0,83,0.00,,,0.00,0,Wunderground v.1.15,2013-01-12 10:56:00,
2013-01-12 05:02:00,50.0,44.7,29.69,SSW,196,9.0,9.0,82,0.00,,,0.00,0,Wunderground v.1.15,2013-01-12 11:02:00,
2013-01-12 05:10:00,50.2,44.9,29.69,SSW,210,8.0,13.0,82,0.00,,,0.00,0,Wunderground v.1.15,2013-01-12 11:10:00,
2013-01-12 05:16:00,50.0,44.7,29.69,SSW,192,8.0,10.0,82,0.00,,,0.00,0,Wunderground v.1.15,2013-01-12 11:16:00,
2013-01-12 05:22:00,49.8,44.5,29.69,SSW,198,6.0,8.0,82,0.00,,,0.00,0,Wunderground v.1.15,2013-01-12 11:22:00,
2013-01-12 05:29:00,49.6,44.3,29.69,SSW,207,7.0,15.0,82,0.00,,,0.00,0,Wunderground v.1.15,2013-01-12 11:29:00,
2013-01-12 05:35:00,49.7,44.7,29.69,South,191,7.0,10.0,83,0.00,,,0.00,0,Wunderground v.1.15,2013-01-12 11:35:00,
2013-01-12 05:41:00,49.8,44.8,29.69,South,190,7.0,7.0,83,0.00,,,0.00,0,Wunderground v.1.15,2013-01-12 11:41:00,
2013-01-12 05:46:00,49.8,44.5,29.70,SSW,207,8.0,12.0,82,0.00,,,0.00,0,Wunderground v.1.15,2013-01-12 11:46:00,
2013-01-12 05:52:00,49.8,44.5,29.70,SSW,209,9.0,16.0,82,0.00,,,0.00,0,Wunderground v.1.15,2013-01-12 11:52:00,
2013-01-12 06:00:00,49.9,44.3,29.70,SSW,207,11.0,16.0,81,0.00,,,0.00,0,Wunderground v.1.15,2013-01-12 12:00:00,
2013-01-12 06:05:00,50.1,44.5,29.70,SSW,199,11.0,11.0,81,0.00,,,0.00,0,Wunderground v.1.15,2013-01-12 12:05:00,
2013-01-12 06:10:00,50.0,44.7,29.70,SSW,208,12.0,12.0,82,0.00,,,0.00,0,Wunderground v.1.15,2013-01-12 12:10:00,
2013-01-12 06:16:00,50.0,44.4,29.72,SSW,212,12.0,14.0,81,0.00,,,0.00,0,Wunderground v.1.15,2013-01-12 12:16:00,
2013-01-12 06:25:00,49.8,44.2,29.72,SSW,194,12.0,12.0,81,0.00,,,0.00,0,Wunderground v.1.15,2013-01-12 12:25:00,
2013-01-12 06:30:00,49.4,43.8,29.72,SSW,209,11.0,15.0,81,0.00,,,0.00,0,Wunderground v.1.15,2013-01-12 12:30:00,
2013-01-12 06:35:00,49.2,43.6,29.72,SW,227,10.0,15.0,81,0.00,,,0.00,0,Wunderground v.1.15,2013-01-12 12:35:00,
2013-01-12 06:40:00,49.5,43.9,29.72,WSW,240,11.0,11.0,81,0.00,,,0.00,0,Wunderground v.1.15,2013-01-12 12:40:00,
2013-01-12 06:46:00,49.7,43.8,29.73,SW,232,13.0,22.0,80,0.00,,,0.00,0,Wunderground v.1.15,2013-01-12 12:46:00,
2013-01-12 06:51:00,50.5,43.6,29.73,SW,219,17.0,18.0,77,0.00,,,0.00,0,Wunderground v.1.15,2013-01-12 12:51:00,
2013-01-12 06:56:00,50.0,43.1,29.73,SW,232,18.0,23.0,77,0.00,,,0.00,0,Wunderground v.1.15,2013-01-12 12:56:00,
2013-01-12 07:02:00,49.8,42.9,29.74,SW,218,16.0,17.0,77,0.00,,,0.00,0,Wunderground v.1.15,2013-01-12 13:02:00,
2013-01-12 07:07:00,49.5,42.9,29.74,SW,231,16.0,22.0,78,0.00,,,0.00,0,Wunderground v.1.15,2013-01-12 13:07:00,
2013-01-12 07:15:00,49.1,42.5,29.74,SW,227,18.0,22.0,78,0.00,,,0.00,0,Wunderground v.1.15,2013-01-12 13:15:00,
2013-01-12 07:20:00,48.8,41.9,29.76,WSW,238,18.0,22.0,77,0.00,,,0.00,0,Wunderground v.1.15,2013-01-12 13:20:00,
2013-01-12 07:25:00,47.8,41.3,29.76,WSW,258,19.0,24.0,78,0.00,,,0.00,0,Wunderground v.1.15,2013-01-12 13:25:00,
2013-01-12 07:30:00,46.3,40.1,29.77,WSW,240,19.0,20.0,79,0.00,,,0.00,0,Wunderground v.1.15,2013-01-12 13:30:00,
2013-01-12 07:36:00,45.1,39.3,29.77,SW,236,17.0,22.0,80,0.00,,,0.00,11,Wunderground v.1.15,2013-01-12 13:36:00,
2013-01-12 07:41:00,44.7,38.9,29.77,SW,229,16.0,17.0,80,0.00,,,0.00,16,Wunderground v.1.15,2013-01-12 13:41:00,
2013-01-12 07:47:00,44.3,37.5,29.79,SW,222,17.0,22.0,77,0.00,,,0.00,16,Wunderground v.1.15,2013-01-12 13:47:00,
2013-01-12 07:52:00,43.9,35.8,29.79,SSW,209,18.0,22.0,73,0.00,,,0.00,26,Wunderground v.1.15,2013-01-12 13:52:00,
2013-01-12 07:58:00,43.2,34.8,29.79,SW,234,18.0,22.0,72,0.00,,,0.00,37,Wunderground v.1.15,2013-01-12 13:58:00,
2013-01-12 08:05:00,42.6,34.9,29.79,SW,234,18.0,20.0,74,0.00,,,0.00,47,Wunderground v.1.15,2013-01-12 14:05:00,
2013-01-12 08:10:00,42.4,34.7,29.79,SW,227,18.0,20.0,74,0.00,,,0.00,62,Wunderground v.1.15,2013-01-12 14:10:00,
2013-01-12 08:16:00,41.9,34.9,29.81,SW,227,19.0,23.0,76,0.00,,,0.00,70,Wunderground v.1.15,2013-01-12 14:16:00,
2013-01-12 08:22:00,41.5,34.5,29.81,SSW,200,18.0,27.0,76,0.00,,,0.00,81,Wunderground v.1.15,2013-01-12 14:22:00,
2013-01-12 08:27:00,41.0,34.0,29.81,WSW,245,19.0,27.0,76,0.00,,,0.00,98,Wunderground v.1.15,2013-01-12 14:27:00,
2013-01-12 08:35:00,40.5,33.2,29.83,SW,232,17.0,18.0,75,0.00,,,0.00,90,Wunderground v.1.15,2013-01-12 14:35:00,
2013-01-12 08:40:00,40.1,33.5,29.83,SW,232,17.0,17.0,77,0.00,,,0.00,79,Wunderground v.1.15,2013-01-12 14:40:00,
2013-01-12 08:46:00,39.8,33.5,29.83,SW,231,16.0,18.0,78,0.00,,,0.00,90,Wunderground v.1.15,2013-01-12 14:46:00,
2013-01-12 08:51:00,39.3,32.7,29.83,WSW,248,16.0,22.0,77,0.00,,,0.00,105,Wunderground v.1.15,2013-01-12 14:51:00,
2013-01-12 08:56:00,38.7,32.4,29.83,WSW,239,19.0,22.0,78,0.00,,,0.00,176,Wunderground v.1.15,2013-01-12 14:56:00,
2013-01-12 09:01:00,38.4,32.8,29.84,WSW,240,19.0,21.0,80,0.00,,,0.00,123,Wunderground v.1.15,2013-01-12 15:01:00,
2013-01-12 09:07:00,38.1,32.5,29.84,SW,233,16.0,21.0,80,0.00,,,0.00,206,Wunderground v.1.15,2013-01-12 15:07:00,
2013-01-12 09:14:00,37.6,31.7,29.84,SW,229,16.0,18.0,79,0.00,,,0.00,179,Wunderground v.1.15,2013-01-12 15:14:00,
2013-01-12 09:19:00,37.3,31.1,29.85,SW,236,17.0,20.0,78,0.00,,,0.00,209,Wunderground v.1.15,2013-01-12 15:19:00,
2013-01-12 09:25:00,36.8,30.3,29.85,SW,225,17.0,24.0,77,0.00,,,0.00,171,Wunderground v.1.15,2013-01-12 15:25:00,
2013-01-12 09:30:00,36.5,30.0,29.85,SW,234,18.0,18.0,77,0.00,,,0.00,134,Wunderground v.1.15,2013-01-12 15:30:00,
2013-01-12 09:35:00,36.3,30.1,29.85,SW,236,16.0,18.0,78,0.00,,,0.00,81,Wunderground v.1.15,2013-01-12 15:35:00,
2013-01-12 09:41:00,36.2,30.0,29.85,SW,232,17.0,19.0,78,0.00,,,0.00,76,Wunderground v.1.15,2013-01-12 15:41:00,
2013-01-12 09:47:00,36.2,30.0,29.87,SW,229,18.0,22.0,78,0.00,,,0.00,338,Wunderground v.1.15,2013-01-12 15:47:00,
2013-01-12 09:54:00,36.2,30.0,29.87,SSW,205,18.0,20.0,78,0.00,,,0.00,63,Wunderground v.1.15,2013-01-12 15:54:00,
2013-01-12 09:59:00,36.1,30.2,29.87,SW,232,17.0,20.0,79,0.00,,,0.00,105,Wunderground v.1.15,2013-01-12 15:59:00,
2013-01-12 10:04:00,36.1,30.2,29.88,WSW,250,15.0,17.0,79,0.00,,,0.00,348,Wunderground v.1.15,2013-01-12 16:04:00,
2013-01-12 10:10:00,36.1,30.2,29.88,SW,219,13.0,15.0,79,0.00,,,0.00,348,Wunderground v.1.15,2013-01-12 16:10:00,
2013-01-12 10:15:00,36.1,30.2,29.89,SW,228,13.0,16.0,79,0.00,,,0.00,264,Wunderground v.1.15,2013-01-12 16:15:00,
2013-01-12 10:21:00,36.1,30.2,29.89,WSW,237,14.0,18.0,79,0.00,,,0.00,404,Wunderground v.1.15,2013-01-12 16:21:00,
2013-01-12 10:26:00,36.3,30.1,29.89,SW,232,15.0,21.0,78,0.00,,,0.00,316,Wunderground v.1.15,2013-01-12 16:26:00,
2013-01-12 10:31:00,36.1,29.6,29.90,SW,224,16.0,23.0,77,0.00,,,0.00,165,Wunderground v.1.15,2013-01-12 16:31:00,
2013-01-12 10:37:00,35.9,29.7,29.90,SW,221,18.0,23.0,78,0.00,,,0.00,339,Wunderground v.1.15,2013-01-12 16:37:00,
2013-01-12 10:42:00,36.0,27.5,29.90,WSW,243,19.0,25.0,71,0.00,,,0.00,394,Wunderground v.1.15,2013-01-12 16:42:00,
2013-01-12 10:50:00,35.8,26.3,29.89,WSW,255,20.0,25.0,68,0.00,,,0.00,111,Wunderground v.1.15,2013-01-12 16:50:00,
2013-01-12 10:55:00,35.4,25.9,29.89,SW,224,20.0,21.0,68,0.00,,,0.00,135,Wunderground v.1.15,2013-01-12 16:55:00,
2013-01-12 11:00:00,35.1,26.3,29.91,SW,227,19.0,19.0,70,0.00,,,0.00,155,Wunderground v.1.15,2013-01-12 17:00:00,
2013-01-12 11:06:00,35.0,26.9,29.91,SW,236,15.0,19.0,72,0.00,,,0.00,141,Wunderground v.1.15,2013-01-12 17:06:00,
2013-01-12 11:11:00,34.9,27.1,29.91,SW,224,14.0,19.0,73,0.00,,,0.00,540,Wunderground v.1.15,2013-01-12 17:11:00,
2013-01-12 11:17:00,35.1,27.6,29.90,SW,231,16.0,22.0,74,0.00,,,0.00,427,Wunderground v.1.15,2013-01-12 17:17:00,
2013-01-12 11:24:00,35.1,27.0,29.90,SW,225,17.0,21.0,72,0.00,,,0.00,462,Wunderground v.1.15,2013-01-12 17:24:00,
2013-01-12 11:30:00,34.9,26.4,29.89,SW,215,18.0,22.0,71,0.00,,,0.00,211,Wunderground v.1.15,2013-01-12 17:30:00,
2013-01-12 11:36:00,34.7,26.3,29.89,SW,228,17.0,21.0,71,0.00,,,0.00,202,Wunderground v.1.15,2013-01-12 17:36:00,
2013-01-12 11:41:00,34.7,26.6,29.89,WSW,239,17.0,20.0,72,0.00,,,0.00,237,Wunderground v.1.15,2013-01-12 17:41:00,
2013-01-12 11:46:00,34.8,26.7,29.89,WSW,239,16.0,20.0,72,0.00,,,0.00,234,Wunderground v.1.15,2013-01-12 17:46:00,
2013-01-12 11:52:00,34.8,26.7,29.89,SW,235,15.0,15.0,72,0.00,,,0.00,211,Wunderground v.1.15,2013-01-12 17:52:00,
2013-01-12 11:57:00,34.6,25.8,29.89,SW,227,16.0,22.0,70,0.00,,,0.00,197,Wunderground v.1.15,2013-01-12 17:57:00,
2013-01-12 12:04:00,34.3,26.5,29.90,WSW,246,19.0,22.0,73,0.00,,,0.00,178,Wunderground v.1.15,2013-01-12 18:04:00,
2013-01-12 12:10:00,34.1,26.7,29.90,WSW,242,18.0,22.0,74,0.00,,,0.00,162,Wunderground v.1.15,2013-01-12 18:10:00,
2013-01-12 12:15:00,34.1,26.7,29.90,WSW,238,17.0,23.0,74,0.00,,,0.00,167,Wunderground v.1.15,2013-01-12 18:15:00,
2013-01-12 12:21:00,34.0,26.9,29.90,SW,229,18.0,18.0,75,0.00,,,0.00,162,Wunderground v.1.15,2013-01-12 18:21:00,
2013-01-12 12:26:00,33.8,26.4,29.90,SSW,212,16.0,18.0,74,0.00,,,0.00,165,Wunderground v.1.15,2013-01-12 18:26:00,
2013-01-12 12:32:00,33.7,26.6,29.89,SW,234,14.0,20.0,75,0.00,,,0.00,186,Wunderground v.1.15,2013-01-12 18:32:00,
2013-01-12 12:39:00,33.5,26.1,29.89,SW,225,15.0,20.0,74,0.00,,,0.00,155,Wunderground v.1.15,2013-01-12 18:39:00,
2013-01-12 12:45:00,33.3,25.9,29.89,WSW,244,16.0,19.0,74,0.00,,,0.00,153,Wunderground v.1.15,2013-01-12 18:45:00,
2013-01-12 12:51:00,33.4,26.0,29.90,SW,236,16.0,16.0,74,0.00,,,0.00,237,Wunderground v.1.15,2013-01-12 18:51:00,
2013-01-12 12:57:00,33.1,25.1,29.90,SW,228,17.0,22.0,72,0.00,,,0.00,230,Wunderground v.1.15,2013-01-12 18:57:00,
2013-01-12 13:02:00,33.1,25.4,29.91,SW,221,17.0,19.0,73,0.00,,,0.00,218,Wunderground v.1.15,2013-01-12 19:02:00,
2013-01-12 13:07:00,33.2,25.5,29.91,SW,223,15.0,21.0,73,0.00,,,0.00,188,Wunderground v.1.15,2013-01-12 19:07:00,
2013-01-12 13:14:00,33.2,25.1,29.91,SW,235,15.0,20.0,72,0.00,,,0.00,169,Wunderground v.1.15,2013-01-12 19:14:00,
2013-01-12 13:20:00,33.1,25.7,29.92,SW,234,16.0,16.0,74,0.00,,,0.00,174,Wunderground v.1.15,2013-01-12 19:20:00,
2013-01-12 13:27:00,33.0,25.3,29.92,WSW,237,15.0,17.0,73,0.00,,,0.00,135,Wunderground v.1.15,2013-01-12 19:27:00,
2013-01-12 13:32:00,33.1,25.1,29.92,WSW,244,16.0,16.0,72,0.00,,,0.00,232,Wunderground v.1.15,2013-01-12 19:32:00,
2013-01-12 13:39:00,33.0,25.3,29.92,SW,232,19.0,20.0,73,0.00,,,0.00,172,Wunderground v.1.15,2013-01-12 19:39:00,
2013-01-12 13:45:00,33.0,25.3,29.92,WSW,241,18.0,19.0,73,0.00,,,0.00,153,Wunderground v.1.15,2013-01-12 19:45:00,
2013-01-12 13:50:00,33.0,25.0,29.92,WSW,252,16.0,20.0,72,0.00,,,0.00,163,Wunderground v.1.15,2013-01-12 19:50:00,
2013-01-12 13:56:00,33.0,25.6,29.92,WSW,239,16.0,20.0,74,0.00,,,0.00,193,Wunderground v.1.15,2013-01-12 19:56:00,
2013-01-12 14:02:00,32.9,25.2,29.92,WSW,240,15.0,16.0,73,0.00,,,0.00,118,Wunderground v.1.15,2013-01-12 20:02:00,
2013-01-12 14:10:00,32.8,25.1,29.92,WSW,250,15.0,18.0,73,0.00,,,0.00,137,Wunderground v.1.15,2013-01-12 20:10:00,
2013-01-12 14:15:00,32.9,25.2,29.93,SW,223,13.0,14.0,73,0.00,,,0.00,160,Wunderground v.1.15,2013-01-12 20:15:00,
2013-01-12 14:21:00,33.0,25.3,29.93,WSW,252,12.0,15.0,73,0.00,,,0.00,202,Wunderground v.1.15,2013-01-12 20:21:00,
2013-01-12 14:26:00,33.1,24.0,29.93,WSW,250,12.0,15.0,69,0.00,,,0.00,153,Wunderground v.1.15,2013-01-12 20:26:00,
2013-01-12 14:34:00,32.8,23.4,29.94,West,269,12.0,14.0,68,0.00,,,0.00,105,Wunderground v.1.15,2013-01-12 20:34:00,
2013-01-12 14:40:00,32.7,23.6,29.94,WSW,238,13.0,13.0,69,0.00,,,0.00,151,Wunderground v.1.15,2013-01-12 20:40:00,
2013-01-12 14:45:00,32.6,23.9,29.93,WSW,248,11.0,13.0,70,0.00,,,0.00,93,Wunderground v.1.15,2013-01-12 20:45:00,
2013-01-12 14:50:00,32.5,23.8,29.93,WSW,246,10.0,16.0,70,0.00,,,0.00,109,Wunderground v.1.15,2013-01-12 20:50:00,
2013-01-12 14:56:00,32.4,23.7,29.93,WSW,250,11.0,16.0,70,0.00,,,0.00,74,Wunderground v.1.15,2013-01-12 20:56:00,
2013-01-12 15:01:00,32.3,23.6,29.95,SW,236,10.0,10.0,70,0.00,,,0.00,81,Wunderground v.1.15,2013-01-12 21:01:00,
2013-01-12 15:07:00,32.2,23.2,29.95,WSW,240,9.0,10.0,69,0.00,,,0.00,69,Wunderground v.1.15,2013-01-12 21:07:00,
2013-01-12 15:12:00,32.0,23.3,29.95,West,279,11.0,13.0,70,0.00,,,0.00,60,Wunderground v.1.15,2013-01-12 21:12:00,
2013-01-12 15:20:00,31.8,23.5,29.94,WSW,250,10.0,13.0,71,0.00,,,0.00,49,Wunderground v.1.15,2013-01-12 21:20:00,
2013-01-12 15:26:00,31.7,23.4,29.94,WSW,242,10.0,12.0,71,0.00,,,0.00,35,Wunderground v.1.15,2013-01-12 21:26:00,
2013-01-12 15:32:00,31.7,23.0,29.95,West,262,11.0,13.0,70,0.00,,,0.00,30,Wunderground v.1.15,2013-01-12 21:32:00,
2013-01-12 15:37:00,31.6,22.9,29.95,WSW,243,11.0,13.0,70,0.00,,,0.00,25,Wunderground v.1.15,2013-01-12 21:37:00,
2013-01-12 15:44:00,31.4,22.7,29.95,WSW,252,11.0,16.0,70,0.00,,,0.00,18,Wunderground v.1.15,2013-01-12 21:44:00,
2013-01-12 15:50:00,31.4,22.7,29.95,WSW,254,11.0,16.0,70,0.00,,,0.00,19,Wunderground v.1.15,2013-01-12 21:50:00,
2013-01-12 15:55:00,31.4,22.7,29.95,WSW,246,10.0,13.0,70,0.00,,,0.00,30,Wunderground v.1.15,2013-01-12 21:55:00,
2013-01-12 16:01:00,31.4,22.7,29.97,SW,236,11.0,11.0,70,0.00,,,0.00,33,Wunderground v.1.15,2013-01-12 22:01:00,
2013-01-12 16:07:00,31.4,23.1,29.97,WSW,252,10.0,11.0,71,0.00,,,0.00,23,Wunderground v.1.15,2013-01-12 22:07:00,
2013-01-12 16:14:00,31.3,22.3,29.97,West,265,10.0,15.0,69,0.00,,,0.00,5,Wunderground v.1.15,2013-01-12 22:14:00,
2013-01-12 16:20:00,31.2,22.5,29.98,WSW,250,11.0,11.0,70,0.00,,,0.00,0,Wunderground v.1.15,2013-01-12 22:20:00,
2013-01-12 16:25:00,31.2,22.9,29.98,West,259,9.0,12.0,71,0.00,,,0.00,0,Wunderground v.1.15,2013-01-12 22:25:00,
2013-01-12 16:31:00,31.1,22.8,29.99,West,267,8.0,8.0,71,0.00,,,0.00,0,Wunderground v.1.15,2013-01-12 22:31:00,
2013-01-12 16:37:00,30.9,22.3,29.99,WSW,237,11.0,11.0,70,0.00,,,0.00,0,Wunderground v.1.15,2013-01-12 22:37:00,
2013-01-12 16:42:00,30.9,22.6,29.99,West,263,10.0,11.0,71,0.00,,,0.00,0,Wunderground v.1.15,2013-01-12 22:42:00,
2013-01-12 16:50:00,30.8,22.2,29.98,WSW,256,8.0,11.0,70,0.00,,,0.00,0,Wunderground v.1.15,2013-01-12 22:50:00,
2013-01-12 16:55:00,30.8,22.5,29.98,West,259,8.0,11.0,71,0.00,,,0.00,0,Wunderground v.1.15,2013-01-12 22:55:00,
2013-01-12 17:01:00,30.7,22.4,29.98,West,278,8.0,9.0,71,0.00,,,0.00,0,Wunderground v.1.15,2013-01-12 23:01:00,
2013-01-12 17:06:00,30.5,22.2,29.98,West,280,8.0,9.0,71,0.00,,,0.00,0,Wunderground v.1.15,2013-01-12 23:06:00,
2013-01-12 17:12:00,30.4,22.1,29.98,NW,306,10.0,10.0,71,0.00,,,0.00,0,Wunderground v.1.15,2013-01-12 23:12:00,
2013-01-12 17:17:00,30.4,22.4,29.96,West,276,9.0,10.0,72,0.00,,,0.00,0,Wunderground v.1.15,2013-01-12 23:17:00,
2013-01-12 17:22:00,30.3,22.7,29.96,West,277,7.0,8.0,73,0.00,,,0.00,0,Wunderground v.1.15,2013-01-12 23:22:00,
2013-01-12 17:27:00,30.3,22.7,29.96,West,272,6.0,8.0,73,0.00,,,0.00,0,Wunderground v.1.15,2013-01-12 23:27:00,
2013-01-12 17:35:00,30.3,23.0,29.96,West,261,4.0,5.0,74,0.00,,,0.00,0,Wunderground v.1.15,2013-01-12 23:35:00,
2013-01-12 17:41:00,30.2,22.9,29.96,West,260,5.0,9.0,74,0.00,,,0.00,0,Wunderground v.1.15,2013-01-12 23:41:00,
2013-01-12 17:46:00,30.0,22.4,29.96,WSW,248,6.0,9.0,73,0.00,,,0.00,0,Wunderground v.1.15,2013-01-12 23:46:00,
2013-01-12 17:52:00,29.9,22.0,29.96,SW,236,7.0,8.0,72,0.00,,,0.00,0,Wunderground v.1.15,2013-01-12 23:52:00,
2013-01-12 18:00:00,29.9,22.3,29.96,SW,227,5.0,8.0,73,0.00,,,0.00,0,Wunderground v.1.15,2013-01-13 00:00:00,
2013-01-12 18:05:00,29.9,22.6,29.97,WSW,238,6.0,8.0,74,0.00,,,0.00,0,Wunderground v.1.15,2013-01-13 00:05:00,
2013-01-12 18:11:00,29.9,22.6,29.97,SW,215,6.0,6.0,74,0.00,,,0.00,0,Wunderground v.1.15,2013-01-13 00:11:00,
2013-01-12 18:17:00,29.8,22.2,29.96,SW,230,5.0,8.0,73,0.00,,,0.00,0,Wunderground v.1.15,2013-01-13 00:17:00,
2013-01-12 18:25:00,29.9,22.9,29.96,SW,232,5.0,6.0,75,0.00,,,0.00,0,Wunderground v.1.15,2013-01-13 00:25:00,
2013-01-12 18:30:00,29.9,23.3,29.96,SW,226,5.0,6.0,76,0.00,,,0.00,0,Wunderground v.1.15,2013-01-13 00:30:00,
2013-01-12 18:35:00,29.8,22.5,29.96,WSW,242,4.0,6.0,74,0.00,,,0.00,0,Wunderground v.1.15,2013-01-13 00:35:00,
2013-01-12 18:41:00,29.7,22.4,29.96,WSW,255,5.0,5.0,74,0.00,,,0.00,0,Wunderground v.1.15,2013-01-13 00:41:00,
2013-01-12 18:46:00,29.6,22.3,29.95,WNW,296,5.0,5.0,74,0.00,,,0.00,0,Wunderground v.1.15,2013-01-13 00:46:00,
2013-01-12 18:52:00,29.6,22.3,29.95,NW,306,4.0,5.0,74,0.00,,,0.00,0,Wunderground v.1.15,2013-01-13 00:52:00,
2013-01-12 18:57:00,29.5,22.2,29.95,WNW,284,5.0,5.0,74,0.00,,,0.00,0,Wunderground v.1.15,2013-01-13 00:57:00,
2013-01-12 19:05:00,29.5,22.2,29.96,West,281,6.0,7.0,74,0.00,,,0.00,0,Wunderground v.1.15,2013-01-13 01:05:00,
2013-01-12 19:10:00,29.5,22.2,29.96,WNW,283,6.0,9.0,74,0.00,,,0.00,0,Wunderground v.1.15,2013-01-13 01:10:00,
2013-01-12 19:15:00,29.4,22.5,29.98,West,267,6.0,9.0,75,0.00,,,0.00,0,Wunderground v.1.15,2013-01-13 01:15:00,
2013-01-12 19:21:00,29.5,22.6,29.98,WSW,254,6.0,8.0,75,0.00,,,0.00,0,Wunderground v.1.15,2013-01-13 01:21:00,
2013-01-12 19:27:00,29.5,22.6,29.98,WSW,252,7.0,10.0,75,0.00,,,0.00,0,Wunderground v.1.15,2013-01-13 01:27:00,
2013-01-12 19:32:00,29.4,22.5,29.99,West,260,7.0,9.0,75,0.00,,,0.00,0,Wunderground v.1.15,2013-01-13 01:32:00,
2013-01-12 19:37:00,29.3,22.4,29.99,West,267,7.0,9.0,75,0.00,,,0.00,0,Wunderground v.1.15,2013-01-13 01:37:00,
2013-01-12 19:45:00,29.3,22.7,29.99,WSW,258,6.0,7.0,76,0.00,,,0.00,0,Wunderground v.1.15,2013-01-13 01:45:00,
2013-01-12 19:50:00,29.2,22.6,29.99,West,277,5.0,7.0,76,0.00,,,0.00,0,Wunderground v.1.15,2013-01-13 01:50:00,
2013-01-12 19:55:00,29.3,23.0,29.99,West,270,5.0,6.0,77,0.00,,,0.00,0,Wunderground v.1.15,2013-01-13 01:55:00,
2013-01-12 20:00:00,29.2,22.9,29.99,West,267,6.0,9.0,77,0.00,,,0.00,0,Wunderground v.1.15,2013-01-13 02:00:00,
2013-01-12 20:05:00,29.2,22.9,29.99,West,261,7.0,7.0,77,0.00,,,0.00,0,Wunderground v.1.15,2013-01-13 02:05:00,
2013-01-12 20:10:00,29.3,23.3,29.99,SW,234,6.0,7.0,78,0.00,,,0.00,0,Wunderground v.1.15,2013-01-13 02:10:00,
2013-01-12 20:16:00,29.2,22.6,30.02,WSW,238,6.0,8.0,76,0.00,,,0.00,0,Wunderground v.1.15,2013-01-13 02:16:00,
2013-01-12 20:22:00,29.1,22.5,30.02,West,277,7.0,8.0,76,0.00,,,0.00,0,Wunderground v.1.15,2013-01-13 02:22:00,
2013-01-12 20:27:00,29.1,22.2,30.02,West,270,7.0,8.0,75,0.00,,,0.00,0,Wunderground v.1.15,2013-01-13 02:27:00,
2013-01-12 20:35:00,28.9,21.3,30.02,West,281,6.0,7.0,73,0.00,,,0.00,0,Wunderground v.1.15,2013-01-13 02:35:00,
2013-01-12 20:40:00,28.7,20.5,30.02,WNW,285,7.0,9.0,71,0.00,,,0.00,0,Wunderground v.1.15,2013-01-13 02:40:00,
2013-01-12 20:46:00,28.6,20.7,30.01,WNW,288,7.0,9.0,72,0.00,,,0.00,0,Wunderground v.1.15,2013-01-13 02:46:00,
2013-01-12 20:51:00,28.4,20.5,30.01,West,266,7.0,11.0,72,0.00,,,0.00,0,Wunderground v.1.15,2013-01-13 02:51:00,
2013-01-12 20:57:00,28.2,20.3,30.01,West,271,8.0,11.0,72,0.00,,,0.00,0,Wunderground v.1.15,2013-01-13 02:57:00,
2013-01-12 21:05:00,28.2,20.3,30.00,West,267,8.0,9.0,72,0.00,,,0.00,0,Wunderground v.1.15,2013-01-13 03:05:00,
2013-01-12 21:11:00,28.0,19.8,30.00,West,275,9.0,10.0,71,0.00,,,0.00,0,Wunderground v.1.15,2013-01-13 03:11:00,
2013-01-12 21:15:00,28.0,20.1,30.00,WNW,286,9.0,10.0,72,0.00,,,0.00,0,Wunderground v.1.15,2013-01-13 03:15:00,
2013-01-12 21:21:00,28.0,19.8,30.00,WNW,284,8.0,10.0,71,0.00,,,0.00,0,Wunderground v.1.15,2013-01-13 03:21:00,
2013-01-12 21:26:00,27.8,19.6,30.00,WNW,297,9.0,10.0,71,0.00,,,0.00,0,Wunderground v.1.15,2013-01-13 03:26:00,
2013-01-12 21:31:00,27.8,19.9,29.99,WNW,300,9.0,9.0,72,0.00,,,0.00,0,Wunderground v.1.15,2013-01-13 03:31:00,
2013-01-12 21:37:00,27.6,19.4,29.99,WNW,293,9.0,13.0,71,0.00,,,0.00,0,Wunderground v.1.15,2013-01-13 03:37:00,
2013-01-12 21:45:00,27.5,19.7,29.99,NW,309,9.0,10.0,72,0.00,,,0.00,0,Wunderground v.1.15,2013-01-13 03:45:00,
2013-01-12 21:50:00,27.5,20.0,29.98,WNW,298,7.0,7.0,73,0.00,,,0.00,0,Wunderground v.1.15,2013-01-13 03:50:00,
2013-01-12 21:56:00,27.5,20.0,29.98,West,273,6.0,8.0,73,0.00,,,0.00,0,Wunderground v.1.15,2013-01-13 03:56:00,
2013-01-12 22:02:00,27.3,20.1,29.97,NW,309,7.0,8.0,74,0.00,,,0.00,0,Wunderground v.1.15,2013-01-13 04:02:00,
2013-01-12 22:10:00,26.7,21.1,29.97,WNW,298,9.0,9.0,79,0.00,,,0.00,0,Wunderground v.1.15,2013-01-13 04:10:00,
2013-01-12 22:15:00,26.1,21.6,29.95,WNW,301,9.0,12.0,83,0.00,,,0.00,0,Wunderground v.1.15,2013-01-13 04:15:00,
2013-01-12 22:21:00,25.7,21.8,29.95,WNW,289,9.0,9.0,85,0.00,,,0.00,0,Wunderground v.1.15,2013-01-13 04:21:00,
2013-01-12 22:27:00,25.7,22.1,29.95,NW,309,8.0,12.0,86,0.00,,,0.00,0,Wunderground v.1.15,2013-01-13 04:27:00,
2013-01-12 22:35:00,25.6,22.0,29.93,NW,313,9.0,10.0,86,0.00,,,0.00,0,Wunderground v.1.15,2013-01-13 04:35:00,
2013-01-12 22:41:00,25.6,22.0,29.93,NW,317,9.0,9.0,86,0.00,,,0.00,0,Wunderground v.1.15,2013-01-13 04:41:00,
2013-01-12 22:46:00,25.5,21.9,29.93,WNW,290,8.0,10.0,86,0.00,,,0.00,0,Wunderground v.1.15,2013-01-13 04:46:00,
2013-01-12 22:52:00,25.6,22.0,29.93,North,355,7.0,7.0,86,0.00,,,0.00,0,Wunderground v.1.15,2013-01-13 04:52:00,
2013-01-12 22:57:00,25.6,22.0,29.93,NW,321,8.0,12.0,86,0.00,,,0.00,0,Wunderground v.1.15,2013-01-13 04:57:00,
2013-01-12 23:00:00,25.7,22.1,29.93,NW,319,8.0,9.0,86,0.00,,,0.00,0,Wunderground v.1.15,2013-01-13 05:00:00,
2013-01-12 23:02:00,25.7,21.8,29.92,NNW,339,8.0,12.0,85,0.00,,,0.00,0,Wunderground v.1.15,2013-01-13 05:02:00,
2013-01-12 23:10:00,25.7,22.1,29.92,NNW,331,8.0,12.0,86,0.00,,,0.00,0,Wunderground v.1.15,2013-01-13 05:10:00,
2013-01-12 23:11:00,25.7,22.1,29.92,NW,325,7.0,9.0,86,0.00,,,0.00,0,Wunderground v.1.15,2013-01-13 05:11:00,
2013-01-12 23:17:00,25.7,21.8,29.93,NW,319,6.0,9.0,85,0.00,,,0.00,0,Wunderground v.1.15,2013-01-13 05:17:00,
2013-01-12 23:25:00,25.7,21.8,29.93,NW,323,8.0,13.0,85,0.00,,,0.00,0,Wunderground v.1.15,2013-01-13 05:25:00,
2013-01-12 23:30:00,25.7,21.8,29.94,NW,322,8.0,9.0,85,0.00,,,0.00,0,Wunderground v.1.15,2013-01-13 05:30:00,
2013-01-12 23:37:00,25.6,21.4,29.94,NW,322,8.0,9.0,84,0.00,,,0.00,0,Wunderground v.1.15,2013-01-13 05:37:00,
2013-01-12 23:42:00,25.6,21.7,29.94,NW,319,9.0,10.0,85,0.00,,,0.01,0,Wunderground v.1.15,2013-01-13 05:42:00,
2013-01-12 23:47:00,25.6,21.7,29.94,NW,313,7.0,11.0,85,0.00,,,0.01,0,Wunderground v.1.15,2013-01-13 05:47:00,
2013-01-12 23:55:00,25.7,21.8,29.94,NNW,327,6.0,7.0,85,0.00,,,0.01,0,Wunderground v.1.15,2013-01-13 05:55:00,